This is the latest recevied weather packets stored in our database for station/object G4KVI. If no packets are shown the sender has not sent any weather packets the latest 10 day(s).
| Time | Temp. | Humidity | Pressure | Rain* | Wind** | Luminosity | Snow |
|---|---|---|---|---|---|---|---|
| 1787441103 | 11.11° C | 88% | 1027.1 hPa | 0 mm | - | 0 W/m² | - |
| 1787440803 | 11.11° C | 87% | 1026.9 hPa | 0 mm | - | 0 W/m² | - |
| 1787440503 | 10.56° C | 87% | 1027 hPa | 0 mm | - | 0 W/m² | - |
| 1787440203 | 10.56° C | 86% | 1027.1 hPa | 0 mm | - | 0 W/m² | - |
| 1787439903 | 11.11° C | 86% | 1026.8 hPa | 0 mm | - | 0 W/m² | - |
| 1787439603 | 11.11° C | 85% | 1026.7 hPa | 0 mm | - | 0 W/m² | - |
| 1787439303 | 11.11° C | 85% | 1026.8 hPa | 0 mm | - | 0 W/m² | - |
| 1787439003 | 11.11° C | 85% | 1026.9 hPa | 0 mm | - | 0 W/m² | - |
| 1787438703 | 11.67° C | 85% | 1026.7 hPa | 0 mm | - | 0 W/m² | - |
| 1787438403 | 11.67° C | 84% | 1026.9 hPa | 0 mm | - | 0 W/m² | - |
| 1787438103 | 11.67° C | 84% | 1026.8 hPa | 0 mm | - | 0 W/m² | - |
| 1787437803 | 11.67° C | 84% | 1026.7 hPa | 0 mm | - | 0 W/m² | - |
| 1787437503 | 11.67° C | 83% | 1026.7 hPa | 0 mm | - | 0 W/m² | - |
| 1787437203 | 11.67° C | 82% | 1026.9 hPa | 0 mm | - | 0 W/m² | - |
| 1787436903 | 11.67° C | 81% | 1026.7 hPa | 0 mm | - | 0 W/m² | - |
| 1787436603 | 12.22° C | 81% | 1027 hPa | 0 mm | - | 0 W/m² | - |
| 1787436303 | 12.22° C | 81% | 1026.9 hPa | 0 mm | - | 0 W/m² | - |
| 1787436003 | 12.22° C | 81% | 1026.7 hPa | 0 mm | - | 0 W/m² | - |
| 1787435703 | 12.22° C | 81% | 1026.7 hPa | 0 mm | - | 0 W/m² | - |
| 1787435403 | 12.22° C | 81% | 1026.5 hPa | 0 mm | - | 0 W/m² | - |
| 1787435103 | 12.22° C | 80% | 1026.6 hPa | 0 mm | - | 0 W/m² | - |
| 1787434803 | 12.22° C | 79% | 1026.8 hPa | 0 mm | - | 0 W/m² | - |
| 1787434503 | 12.78° C | 79% | 1026.9 hPa | 0 mm | - | 0 W/m² | - |
| 1787434203 | 12.78° C | 78% | 1026.7 hPa | 0 mm | - | 0 W/m² | - |
| 1787433903 | 12.78° C | 78% | 1026.9 hPa | 0 mm | - | 0 W/m² | - |
* Rain latest hour (hover to see other rain measurements)
** Current wind speed in m/s (hover to see current wind gust speed)